Regional Weather Roundup
Issued by NWS

Home | Current Version | Previous Version | Graphics & Text | Print | Product List | Glossary On
Versions: 1 2 3 4 5 6 7 8 9 10 11 12 13 14 15 16 17 18 19 20 21 22 23 24 25 26 27 28 29 30 31 32 33 34 35 36 37 38 39 40 41 42 43 44 45 46 47 48 49 50
141
ASUS43 KMKX 292000
RWRWI

WISCONSIN REGIONAL WEATHER ROUNDUP
NATIONAL WEATHER SERVICE MILWAUKEE/SULLIVAN WI
300 PM CDT WED MAR 29 2017

NOTE: "FAIR" INDICATES FEW OR NO CLOUDS BELOW 12,000 FEET WITH NO
SIGNIFICANT WEATHER AND/OR OBSTRUCTIONS TO VISIBILITY.

WIZ001-002-006>008-014>016-023>028-292100-
NORTHWEST WISCONSIN

CITY           SKY/WX    TMP DP  RH WIND       PRES   REMARKS
SUPERIOR ARPT  CLOUDY    36  32  88 NE15      30.30F WCI  26
ASHLAND        PTSUNNY   39  32  76 N8        30.29F WCI  33
HAYWARD        CLOUDY    52  28  39 E8        30.23F
SIREN          CLOUDY    52  29  41 SE7       30.22F
CUMBERLAND     CLOUDY    48  30  49 E7        30.22F
RICE LAKE      CLOUDY    49  32  51 SE3       30.24F
CHETEK         CLOUDY    48  33  56 E8        30.23F
LADYSMITH      CLOUDY    51  32  48 E7        30.26F
EAU CLAIRE     NOT AVBL
MENOMONIE      CLOUDY    49  32  51 E8        30.23F
NEW RICHMOND   CLOUDY    49  32  53 SE6       30.22S
OSCEOLA        CLOUDY    51  35  53 SE9       30.24F
$$

WIZ003>005-009-010-017-018-292100-
NORTH CENTRAL WISCONSIN

CITY           SKY/WX    TMP DP  RH WIND       PRES   REMARKS
MANITOWISH WTR CLOUDY    47  29  49 SE3       30.27F
ARBOR VITAE    CLOUDY    49  31  48 SE5       30.26F
WOODRUFF       CLOUDY    49  31  48 SE5       30.26F
RHINELANDER    CLOUDY    48  29  47 E7        30.28F
EAGLE RIVER    CLOUDY    47  27  45 E8        30.28S
LAND O LAKES   PTSUNNY   47  27  47 E6        30.30F
PHILLIPS       CLOUDY    49  31  48 E6        30.25F
TOMAHAWK       CLOUDY    47  30  50 CALM      30.28S
MEDFORD        CLOUDY    45  31  58 E8        30.25F
MERRILL        CLOUDY    46  30  53 SE7       30.28S
$$

WIZ029-030-035-036-043>047-292100-
CENTRAL WISCONSIN

CITY           SKY/WX    TMP DP  RH WIND       PRES   REMARKS
WAUSAU         CLOUDY    46  29  51 E9        30.26F
MOSINEE        CLOUDY    45  30  57 E10       30.28F
MARSHFIELD     PTSUNNY   46  31  55 E13       30.23F
STEVENS POINT  CLOUDY    44  29  57 E12       30.28F
WAUPACA        CLOUDY    47  32  56 E9        30.29F
WAUTOMA        CLOUDY    45  36  70 NE10      30.27F
WISC RAPIDS    CLOUDY    47  33  58 E12       30.27F
CAMP DOUGLAS   CLOUDY    43  39  87 NE6       30.25F
$$

WIZ011>013-019>022-031-037>040-048>050-292100-
NORTHEAST WISCONSIN

CITY           SKY/WX    TMP DP  RH WIND       PRES   REMARKS
ANTIGO         CLOUDY    43  30  60 E8        30.29F
SHAWANO        CLOUDY    46  34  62 E7        30.32F
OCONTO         CLOUDY    42  29  61 NE7       30.34S
STURGEON BAY   PTSUNNY   41  29  62 NE7       30.32F
GREEN BAY      PTSUNNY   41  36  82 NE13      30.31F
MANITOWOC      NOT AVBL
APPLETON       CLOUDY    43  32  65 NE10G16   30.27F
CLINTONVILLE   CLOUDY    45  30  57 E8        30.31S
OSHKOSH        CLOUDY    44  37  76 NE10      30.27F
$$

WIZ032>034-041-042-053>061-292100-
SOUTHWEST WISCONSIN

CITY           SKY/WX    TMP DP  RH WIND       PRES   REMARKS
LA CROSSE      CLOUDY    47  37  68 VRB5      30.20F
SPARTA         CLOUDY    42  38  86 NE7       30.25F
VIROQUA        CLOUDY    44  36  74 E14       30.19F
BOSCOBEL       CLOUDY    49  34  56 E12G20    30.16F
PRAIRIE DU CHI CLOUDY    47  33  57 NE8       30.15F
PLATTEVILLE    PTSUNNY   46  38  72 E14       30.14F
$$

WIZ056-057-062-063-064-067-068-292100-
SOUTH CENTRAL WISCONSIN

CITY           SKY/WX    TMP DP  RH WIND       PRES   REMARKS
REEDSBURG      CLOUDY    45  38  76 E10       30.22F
BARABOO/DELLS  CLOUDY    45  37  71 E10       30.22F
LONE ROCK      NOT AVBL
MINERAL POINT  LGT RAIN  46  36  66 E16       30.14F
MADISON        CLOUDY    48  34  58 E15       30.19F
MIDDLETON      CLOUDY    49  35  58 E13       30.20F
WATERTOWN      CLOUDY    47  32  56 E10       30.23F
MONROE         CLOUDY    45  34  65 NE13G22   30.15F
JANESVILLE     PTSUNNY   48  36  61 E17G23    30.17F
$$

WIZ051-052-058>065-066-070>072-292100-
SOUTHEAST WISCONSIN

CITY           SKY/WX    TMP DP  RH WIND       PRES   REMARKS
MILWAUKEE      CLOUDY    42  34  73 NE13      30.26F
WAUKESHA       PTSUNNY   43  30  61 E10       30.25F
MILWAUKEE/TIMM CLOUDY    45  30  57 NE7       30.27F
RACINE         CLOUDY    44  34  67 NE12      30.25F
KENOSHA        CLOUDY    45  34  65 E13       30.23F
FOND DU LAC    CLOUDY    46  36  68 E9        30.27F
SHEBOYGAN      CLOUDY    41  34  76 NE13      30.29F
WEST BEND      CLOUDY    43  37  81 NE10      30.27F
JUNEAU         CLOUDY    46  33  61 E12       30.25F
$$

LSZ147-162-292100-
LAKE SUPERIOR

STATION/POSITION TIME  TEMP    WIND        PRES    WAVE
                       AIR SEA DIR/SP/G            HT/PER
                 (UTC) (F)     (DEG/KT/KT) (MB)    (FT/S)
DEVILS ISLAND    1900   34      60/ 15/ 17 1027.9F
PORT WING        1940   35      40/ 19/ 21 1025.7F
SAXON HARBOR     1930   35     310/  5/  5 1025.7F
$$

LMZ867-665-643>646-292100-
LAKE MICHIGAN

STATION/POSITION TIME  TEMP    WIND        PRES    WAVE
                       AIR SEA DIR/SP/G            HT/PER
                 (UTC) (F)     (DEG/KT/KT) (MB)    (FT/S)
CHAMBERS ISLAND  1940   36      40/  6/  7 1027.4S
NORTHPORT PIER   1940   35      80/  3/  6 1027.8R
KEWAUNEE LAKESHO 1930   35      30/ 12/ 15 1026.5F
SHEBOYGAN LAKESH 1900   35      10/ 16/ 17 1026.7F
PORT WASHINGTON  1940   40      50/ 12/ 14 1026.4S
MILWAUKEE LAKESH 1930   40      20/ 10/ 12   N/A
KENOSHA   LAKESH 1900   38     360/  6/  8 1025.1
$$

TC  - TEMPERATURE IN CELSIUS
VSB - VISIBILITY IN STATUTE MILES
WCI - WIND CHILL INDEX
HX  - HEAT INDEX





USA.gov is the U.S. government's official web portal to all federal, state and local government web resources and services.